Location: Dammartin
(48.9032°N, 1.6195°E)
Time: 16:07:22
(UTC+00:00)

Cosmos 1408 - Pass Details

Date: 03 February 2023
Orbit: 431 x 463 km, 82.6° (Epoch: 30 March)

Event Time Altitude Azimuth Distance (km) Brightness Sun altitude
Rises 17:35:51 0° 179° (S) 2,405 6.3 -7.3°
Reaches altitude 10° 17:37:53 10° 175° (S) 1,548 5.3 -7.6°
Maximum altitude 17:41:11 57° 96° (E) 531 2.4 -8.1°
Drops below altitude 10° 17:44:35 10° 17° (NNE) 1,585 4.9 -8.7°
Sets 17:46:41 0° 14° (NNE) 2,471 5.9 -9.0°
